CFSAV CYYJ-CYZT

Flight info

Callsign CFSAV
Flight time 0h 54m
Altitude 24000
Route CORMO
Aircraft B350/L-VGD/C

Departure

Time 2026-04-26 23:34
Airport Victoria International Airport (CYYJ)

Arrival

Time 2026-04-27 00:29
Airport Port Hardy Airport (CYZT)
Time Latitude Longitude Altitude Speed Heading
2026-04-26 23:15 48.64415 -123.42244 67 ft 0 kts 342°
2026-04-26 23:29 48.64446 -123.42259 67 ft 15 kts 342°
2026-04-26 23:30 48.64548 -123.42277 67 ft 22 kts
2026-04-26 23:30 48.64665 -123.42215 67 ft 14 kts 38°
2026-04-26 23:30 48.64723 -123.42173 67 ft 7 kts 322°
2026-04-26 23:30 48.64744 -123.42270 67 ft 13 kts 284°
2026-04-26 23:31 48.64761 -123.42371 67 ft 5 kts 272°
2026-04-26 23:31 48.64779 -123.42458 67 ft 12 kts 274°
2026-04-26 23:31 48.64801 -123.42561 67 ft 3 kts 288°
2026-04-26 23:31 48.64823 -123.42673 67 ft 21 kts 285°
2026-04-26 23:32 48.64877 -123.42963 67 ft 32 kts 285°
2026-04-26 23:32 48.64922 -123.43192 67 ft 21 kts 285°
2026-04-26 23:32 48.64978 -123.43481 67 ft 34 kts 285°
2026-04-26 23:32 48.65043 -123.43826 67 ft 23 kts 285°
2026-04-26 23:33 48.65101 -123.43907 67 ft 4 kts 345°
2026-04-26 23:33 48.65116 -123.43917 67 ft 7 kts 332°
2026-04-26 23:33 48.65172 -123.43876 67 ft 14 kts 117°
2026-04-26 23:33 48.65110 -123.43558 68 ft 71 kts 105°
2026-04-26 23:34 48.64897 -123.42443 94 ft 136 kts 105°
2026-04-26 23:34 48.64651 -123.41047 569 ft 137 kts 104°
2026-04-26 23:34 48.64409 -123.39634 1107 ft 146 kts 103°
2026-04-26 23:34 48.64143 -123.38070 1774 ft 159 kts 104°
2026-04-26 23:35 48.63857 -123.36380 2392 ft 173 kts 104°
2026-04-26 23:35 48.63548 -123.34557 3017 ft 184 kts 103°
2026-04-26 23:35 48.63265 -123.32627 3620 ft 190 kts 92°
2026-04-26 23:35 48.63603 -123.30708 4232 ft 194 kts 56°
2026-04-26 23:36 48.64638 -123.29410 4847 ft 198 kts 25°
2026-04-26 23:36 48.65941 -123.28672 5453 ft 201 kts 16°
2026-04-26 23:36 48.67290 -123.28073 6055 ft 203 kts 14°
2026-04-26 23:36 48.68664 -123.27557 6652 ft 204 kts
2026-04-26 23:37 48.70028 -123.27958 7252 ft 202 kts 331°
2026-04-26 23:37 48.71106 -123.29261 7857 ft 201 kts 315°
2026-04-26 23:37 48.72037 -123.30840 8459 ft 202 kts 308°
2026-04-26 23:37 48.72882 -123.32554 9063 ft 202 kts 306°
2026-04-26 23:38 48.73694 -123.34297 9664 ft 203 kts 306°
2026-04-26 23:38 48.74493 -123.36056 10265 ft 203 kts 306°
2026-04-26 23:38 48.75291 -123.37853 10874 ft 203 kts 306°
2026-04-26 23:38 48.76056 -123.39618 11464 ft 203 kts 306°
2026-04-26 23:39 48.76843 -123.41397 12067 ft 202 kts 308°
2026-04-26 23:39 48.77646 -123.43152 12669 ft 202 kts 308°
2026-04-26 23:39 48.78459 -123.44890 13269 ft 202 kts 310°
2026-04-26 23:39 48.79280 -123.46613 13871 ft 201 kts 310°
2026-04-26 23:40 48.80097 -123.48346 14473 ft 201 kts 310°
2026-04-26 23:40 48.80901 -123.50085 15074 ft 201 kts 310°
2026-04-26 23:40 48.81694 -123.51836 15673 ft 201 kts 310°
2026-04-26 23:40 48.82487 -123.53582 16274 ft 200 kts 313°
2026-04-26 23:41 48.83323 -123.55259 16876 ft 199 kts 315°
2026-04-26 23:41 48.84169 -123.56913 17475 ft 198 kts 315°
2026-04-26 23:41 48.85012 -123.58579 18075 ft 198 kts 315°
2026-04-26 23:41 48.85832 -123.60223 18667 ft 198 kts 315°
2026-04-26 23:42 48.86655 -123.61902 19267 ft 198 kts 315°
2026-04-26 23:42 48.88268 -123.65308 20470 ft 198 kts 315°
2026-04-26 23:42 48.89061 -123.67033 21067 ft 198 kts 315°
2026-04-26 23:43 48.89844 -123.68766 21668 ft 198 kts 315°
2026-04-26 23:43 48.90601 -123.70472 22259 ft 197 kts 315°
2026-04-26 23:43 48.91354 -123.72206 22857 ft 196 kts 315°
2026-04-26 23:43 48.92091 -123.73939 23454 ft 195 kts 315°
2026-04-26 23:44 48.92838 -123.75713 23816 ft 207 kts 315°
2026-04-26 23:44 48.93658 -123.77609 23875 ft 221 kts 315°
2026-04-26 23:44 48.94535 -123.79601 23879 ft 231 kts 315°
2026-04-26 23:44 48.95458 -123.81652 23874 ft 238 kts 316°
2026-04-26 23:45 48.96462 -123.83670 23870 ft 241 kts 319°
2026-04-26 23:45 48.97532 -123.85663 23868 ft 243 kts 320°
2026-04-26 23:45 48.98613 -123.87625 23866 ft 243 kts 320°
2026-04-26 23:45 48.99709 -123.89597 23864 ft 243 kts 320°
2026-04-26 23:46 49.00808 -123.91568 23864 ft 243 kts 320°
2026-04-26 23:46 49.01903 -123.93538 23864 ft 244 kts 320°
2026-04-26 23:46 49.02977 -123.95551 23864 ft 245 kts 319°
2026-04-26 23:46 49.04038 -123.97584 23864 ft 245 kts 319°
2026-04-26 23:47 49.05096 -123.99628 23864 ft 245 kts 318°
2026-04-26 23:47 49.06153 -124.01677 23864 ft 245 kts 318°
2026-04-26 23:47 49.07196 -124.03702 23864 ft 245 kts 318°
2026-04-26 23:47 49.08250 -124.05749 23864 ft 245 kts 318°
2026-04-26 23:48 49.09304 -124.07798 23864 ft 244 kts 318°
2026-04-26 23:48 49.10345 -124.09822 23864 ft 244 kts 318°
2026-04-26 23:48 49.11395 -124.11862 23864 ft 244 kts 318°
2026-04-26 23:48 49.12448 -124.13902 23864 ft 244 kts 318°
2026-04-26 23:49 49.13506 -124.15947 23865 ft 245 kts 318°
2026-04-26 23:49 49.14565 -124.17992 23865 ft 245 kts 318°
2026-04-26 23:49 49.15609 -124.20010 23865 ft 245 kts 318°
2026-04-26 23:49 49.16665 -124.22047 23865 ft 245 kts 318°
2026-04-26 23:50 49.17723 -124.24090 23865 ft 245 kts 318°
2026-04-26 23:50 49.18781 -124.26133 23864 ft 245 kts 318°
2026-04-26 23:50 49.19840 -124.28178 23864 ft 245 kts 318°
2026-04-26 23:50 49.20898 -124.30220 23864 ft 245 kts 319°
2026-04-26 23:51 49.21957 -124.32264 23862 ft 245 kts 319°
2026-04-26 23:51 49.23014 -124.34306 23861 ft 245 kts 319°
2026-04-26 23:51 49.24061 -124.36328 23863 ft 245 kts 319°
2026-04-26 23:51 49.25120 -124.38372 23863 ft 245 kts 319°
2026-04-26 23:52 49.26179 -124.40417 23863 ft 245 kts 319°
2026-04-26 23:52 49.27239 -124.42464 23863 ft 245 kts 318°
2026-04-26 23:52 49.28301 -124.44507 23863 ft 245 kts 318°
2026-04-26 23:52 49.29362 -124.46545 23864 ft 245 kts 319°
2026-04-26 23:53 49.30428 -124.48588 23864 ft 245 kts 319°
2026-04-26 23:53 49.31480 -124.50607 23864 ft 245 kts 319°
2026-04-26 23:53 49.32547 -124.52653 23864 ft 245 kts 319°
2026-04-26 23:53 49.33619 -124.54707 23864 ft 245 kts 319°
2026-04-26 23:54 49.34689 -124.56759 23864 ft 245 kts 319°
2026-04-26 23:54 49.35741 -124.58777 23864 ft 245 kts 319°
2026-04-26 23:54 49.36809 -124.60823 23864 ft 245 kts 319°
2026-04-26 23:54 49.37876 -124.62869 23864 ft 245 kts 319°
2026-04-26 23:55 49.38942 -124.64911 23864 ft 245 kts 318°
2026-04-26 23:55 49.40016 -124.66962 23864 ft 246 kts 319°
2026-04-26 23:55 49.41093 -124.69014 23864 ft 246 kts 319°
2026-04-26 23:55 49.42153 -124.71032 23864 ft 246 kts 319°
2026-04-26 23:56 49.43231 -124.73085 23864 ft 246 kts 319°
2026-04-26 23:56 49.44311 -124.75141 23864 ft 246 kts 319°
2026-04-26 23:56 49.45374 -124.77164 23864 ft 246 kts 318°
2026-04-26 23:56 49.46456 -124.79197 23864 ft 245 kts 319°
2026-04-26 23:57 49.47546 -124.81213 23864 ft 245 kts 319°
2026-04-26 23:57 49.48631 -124.83234 23864 ft 245 kts 319°
2026-04-26 23:57 49.49716 -124.85273 23864 ft 246 kts 319°
2026-04-26 23:57 49.50793 -124.87319 23864 ft 246 kts 318°
2026-04-26 23:58 49.51886 -124.89412 23864 ft 246 kts 318°
2026-04-26 23:58 49.52934 -124.91431 23864 ft 246 kts 318°
2026-04-26 23:58 49.53990 -124.93476 23864 ft 246 kts 317°
2026-04-26 23:58 49.55056 -124.95547 23864 ft 247 kts 317°
2026-04-26 23:59 49.56121 -124.97624 23864 ft 247 kts 317°
2026-04-26 23:59 49.57187 -124.99707 23864 ft 247 kts 317°
2026-04-26 23:59 49.58248 -125.01785 23864 ft 247 kts 317°
2026-04-26 23:59 49.59313 -125.03872 23863 ft 247 kts 317°
2026-04-27 00:00 49.60377 -125.05961 23864 ft 247 kts 317°
2026-04-27 00:00 49.61442 -125.08055 23864 ft 247 kts 317°
2026-04-27 00:00 49.62493 -125.10123 23863 ft 247 kts 317°
2026-04-27 00:00 49.63554 -125.12213 23863 ft 247 kts 317°
2026-04-27 00:01 49.64615 -125.14305 23863 ft 248 kts 317°
2026-04-27 00:01 49.65678 -125.16403 23863 ft 248 kts 317°
2026-04-27 00:01 49.66738 -125.18498 23863 ft 248 kts 317°
2026-04-27 00:01 49.67806 -125.20609 23862 ft 248 kts 317°
2026-04-27 00:02 49.68865 -125.22705 23862 ft 248 kts 316°
2026-04-27 00:02 49.69932 -125.24816 23860 ft 248 kts 316°
2026-04-27 00:02 49.70995 -125.26923 23860 ft 248 kts 316°
2026-04-27 00:02 49.72043 -125.29002 23860 ft 248 kts 316°
2026-04-27 00:03 49.73106 -125.31113 23861 ft 248 kts 316°
2026-04-27 00:03 49.74176 -125.33238 23861 ft 249 kts 316°
2026-04-27 00:03 49.75225 -125.35323 23860 ft 249 kts 315°
2026-04-27 00:03 49.76293 -125.37437 23859 ft 250 kts 312°
2026-04-27 00:04 49.77365 -125.39562 23859 ft 252 kts 312°
2026-04-27 00:04 49.78445 -125.41714 23860 ft 253 kts 312°
2026-04-27 00:04 49.79527 -125.43872 23859 ft 254 kts 312°
2026-04-27 00:04 49.80611 -125.46036 23859 ft 255 kts 311°
2026-04-27 00:05 49.81685 -125.48181 23859 ft 255 kts 311°
2026-04-27 00:05 49.82772 -125.50354 23859 ft 255 kts 311°
2026-04-27 00:05 49.83854 -125.52520 23858 ft 250 kts 311°
2026-04-27 00:05 49.84895 -125.54616 23856 ft 241 kts 311°
2026-04-27 00:06 49.85575 -125.55990 23683 ft 244 kts 311°
2026-04-27 00:06 49.86627 -125.58104 23296 ft 251 kts 311°
2026-04-27 00:06 49.87702 -125.60259 22962 ft 253 kts 311°
2026-04-27 00:06 49.88779 -125.62417 22656 ft 253 kts 311°
2026-04-27 00:07 49.89856 -125.64578 22355 ft 253 kts 311°
2026-04-27 00:07 49.90928 -125.66733 22055 ft 252 kts 311°
2026-04-27 00:07 49.92000 -125.68891 21755 ft 252 kts 311°
2026-04-27 00:07 49.93072 -125.71051 21454 ft 252 kts 311°
2026-04-27 00:08 49.94140 -125.73206 21154 ft 252 kts 311°
2026-04-27 00:08 49.95197 -125.75340 20857 ft 251 kts 311°
2026-04-27 00:08 49.96261 -125.77491 20557 ft 251 kts 311°
2026-04-27 00:08 49.97326 -125.79645 20256 ft 251 kts 311°
2026-04-27 00:09 49.98389 -125.81799 19948 ft 250 kts 311°
2026-04-27 00:09 49.99449 -125.83947 19646 ft 250 kts 311°
2026-04-27 00:09 50.00510 -125.86101 19342 ft 250 kts 311°
2026-04-27 00:09 50.01563 -125.88242 19040 ft 249 kts 311°
2026-04-27 00:10 50.02616 -125.90381 18738 ft 248 kts 311°
2026-04-27 00:10 50.03662 -125.92510 18438 ft 248 kts 311°
2026-04-27 00:10 50.04711 -125.94645 18137 ft 247 kts 311°
2026-04-27 00:10 50.05743 -125.96748 17843 ft 247 kts 311°
2026-04-27 00:11 50.06781 -125.98865 17562 ft 245 kts 311°
2026-04-27 00:11 50.07812 -126.00969 17285 ft 244 kts 311°
2026-04-27 00:11 50.08845 -126.03080 17008 ft 243 kts 311°
2026-04-27 00:11 50.09863 -126.05163 16734 ft 243 kts 311°
2026-04-27 00:12 50.10886 -126.07259 16458 ft 242 kts 310°
2026-04-27 00:12 50.11905 -126.09347 16183 ft 241 kts 310°
2026-04-27 00:12 50.12924 -126.11435 15906 ft 241 kts 310°
2026-04-27 00:12 50.13935 -126.13511 15631 ft 240 kts 310°
2026-04-27 00:13 50.14946 -126.15587 15353 ft 240 kts 310°
2026-04-27 00:13 50.15956 -126.17661 15073 ft 240 kts 309°
2026-04-27 00:13 50.16964 -126.19735 14796 ft 239 kts 309°
2026-04-27 00:13 50.17971 -126.21807 14517 ft 239 kts 309°
2026-04-27 00:14 50.18971 -126.23866 14242 ft 238 kts 309°
2026-04-27 00:14 50.19975 -126.25935 13965 ft 238 kts 309°
2026-04-27 00:14 50.20973 -126.27993 13690 ft 237 kts 308°
2026-04-27 00:14 50.21956 -126.30023 13418 ft 237 kts 308°
2026-04-27 00:15 50.22951 -126.32080 13142 ft 237 kts 308°
2026-04-27 00:15 50.23940 -126.34125 12866 ft 236 kts 308°
2026-04-27 00:15 50.24944 -126.36203 12582 ft 236 kts 308°
2026-04-27 00:15 50.25930 -126.38245 12307 ft 235 kts 307°
2026-04-27 00:16 50.26907 -126.40270 12032 ft 235 kts 307°
2026-04-27 00:16 50.27904 -126.42337 11747 ft 235 kts 307°
2026-04-27 00:16 50.28884 -126.44372 11472 ft 234 kts 307°
2026-04-27 00:16 50.29852 -126.46384 11200 ft 234 kts 307°
2026-04-27 00:17 50.30832 -126.48423 10924 ft 234 kts 307°
2026-04-27 00:17 50.31811 -126.50460 10648 ft 234 kts 307°
2026-04-27 00:17 50.32788 -126.52494 10373 ft 234 kts 307°
2026-04-27 00:18 50.34642 -126.56359 9851 ft 234 kts 307°
2026-04-27 00:18 50.35623 -126.58408 9574 ft 234 kts 307°
2026-04-27 00:18 50.36601 -126.60450 9299 ft 234 kts 307°
2026-04-27 00:18 50.37570 -126.62476 9026 ft 235 kts 307°
2026-04-27 00:19 50.38545 -126.64515 8752 ft 235 kts 307°
2026-04-27 00:19 50.39523 -126.66566 8474 ft 234 kts 307°
2026-04-27 00:19 50.40497 -126.68607 8199 ft 233 kts 307°
2026-04-27 00:19 50.41471 -126.70653 7922 ft 233 kts 307°
2026-04-27 00:20 50.42439 -126.72688 7646 ft 232 kts 307°
2026-04-27 00:20 50.43406 -126.74723 7370 ft 232 kts 307°
2026-04-27 00:20 50.44368 -126.76751 7144 ft 230 kts 307°
2026-04-27 00:20 50.45319 -126.78760 6946 ft 228 kts 307°
2026-04-27 00:21 50.46255 -126.80741 6777 ft 225 kts 307°
2026-04-27 00:21 50.47187 -126.82716 6606 ft 224 kts 307°
2026-04-27 00:21 50.48113 -126.84684 6440 ft 224 kts 307°
2026-04-27 00:21 50.49026 -126.86625 6274 ft 223 kts 307°
2026-04-27 00:22 50.49951 -126.88596 6101 ft 223 kts 307°
2026-04-27 00:22 50.50875 -126.90569 5831 ft 226 kts 307°
2026-04-27 00:22 50.51809 -126.92566 5533 ft 228 kts 307°
2026-04-27 00:22 50.52743 -126.94580 5231 ft 228 kts 307°
2026-04-27 00:23 50.53645 -126.96641 4937 ft 228 kts 301°
2026-04-27 00:23 50.54330 -126.98885 4648 ft 228 kts 294°
2026-04-27 00:23 50.54904 -127.01210 4352 ft 228 kts 292°
2026-04-27 00:23 50.55423 -127.03561 4080 ft 226 kts 290°
2026-04-27 00:24 50.55897 -127.05877 3836 ft 218 kts 289°
2026-04-27 00:24 50.56339 -127.08136 3590 ft 214 kts 289°
2026-04-27 00:24 50.56835 -127.10332 3333 ft 211 kts 298°
2026-04-27 00:24 50.57576 -127.12306 3094 ft 208 kts 305°
2026-04-27 00:25 50.58389 -127.14182 2831 ft 206 kts 307°
2026-04-27 00:25 50.59183 -127.15999 2583 ft 194 kts 306°
2026-04-27 00:25 50.59897 -127.17681 2469 ft 180 kts 305°
2026-04-27 00:25 50.60568 -127.19316 2408 ft 178 kts 304°
2026-04-27 00:26 50.61256 -127.21020 2100 ft 188 kts 304°
2026-04-27 00:26 50.61958 -127.22783 1812 ft 191 kts 304°
2026-04-27 00:26 50.62655 -127.24546 1512 ft 186 kts 303°
2026-04-27 00:26 50.63324 -127.26258 1213 ft 181 kts 302°
2026-04-27 00:27 50.63962 -127.27915 1008 ft 172 kts 303°
2026-04-27 00:27 50.64628 -127.29418 831 ft 167 kts 308°
2026-04-27 00:27 50.65304 -127.30913 862 ft 158 kts 304°
2026-04-27 00:27 50.65885 -127.32310 760 ft 153 kts 307°
2026-04-27 00:28 50.66541 -127.33576 566 ft 138 kts 310°
2026-04-27 00:28 50.67096 -127.34621 314 ft 114 kts 310°
2026-04-27 00:28 50.67574 -127.35508 121 ft 99 kts 308°
2026-04-27 00:28 50.67964 -127.36257 76 ft 75 kts 315°
2026-04-27 00:29 50.68204 -127.36693 76 ft 44 kts 308°
2026-04-27 00:29 50.68360 -127.36985 76 ft 25 kts 309°
2026-04-27 00:29 50.68463 -127.37175 75 ft 19 kts 310°
2026-04-27 00:29 50.68489 -127.37322 75 ft 19 kts 222°
2026-04-27 00:30 50.68379 -127.37405 75 ft 14 kts 198°
2026-04-27 00:30 50.68340 -127.37436 75 ft 9 kts 198°
2026-04-27 00:30 50.68287 -127.37461 75 ft 9 kts 198°
2026-04-27 00:30 50.68268 -127.37526 75 ft 2 kts 298°
2026-04-27 00:31 50.68269 -127.37527 75 ft 0 kts 297°